Meteo Giornale » Osservazioni meteo Italia » Venezia-Tessera

ore: 01:50 - Osservazioni Meteo Venezia-Tessera
Lat. 45° 30' N Lon. 12° 20' E Alt. 2 metri s.l.m.

poco_nuvoloso Europe/Rome

17 °C

Poco Nuvoloso

Temp. 24 Ore

17 °C

28 °C

Nord

14.8 Km/h

Dew point 16 °C

Umidità 93 %

Visibilità  10 Km

Il sole sorge alle ore 05:23

Il sole tramonta alle ore 21:05

Data e Ora Cielo e Fenomeni T °C DP °C Um. % Pres. hPa Vis. km Vento km/h
Oggi h: 01:50 poco_nuvoloso Poco Nuvoloso 17 16 93 1000 10 N 14.8
Oggi h: 01:20 poco_nuvoloso Poco Nuvoloso 18 16 88 1000 10 N/NE 11.1
Oggi h: 00:50 poco_nuvoloso Poco Nuvoloso 19 16 82 1000 10 E/NE 24
Oggi h: 00:20 poco_nuvoloso Poco Nuvoloso 20 16 77 1000 10 E 20.3
Ieri h: 23:50 sereno Sereno 19 16 82 1000 10 E/NE 16.7
Ieri h: 23:20 poco_nuvoloso Poco Nuvoloso 18 16 88 1000 10 NE 13
Ieri h: 22:50 poco_nuvoloso Poco Nuvoloso 18 16 88 999 10 N 11.1
Ieri h: 22:20 nuvoloso Nuvoloso 18 15 82 999 10 NE 16.7
Ieri h: 21:50 coperto_pioggia Pioggia Temporale nelle Vicinanze 18 16 88 999 10 N/NE 24
Ieri h: 21:20 coperto_pioggia Pioggia Temporale nelle Vicinanze 17 16 93 1001 7 N 5.5
Ieri h: 20:50 coperto_pioggia Pioggia 17 16 93 1001 7 NO 22.2
Ieri h: 20:20 nuvoloso_temporali Temporale con Pioggia 18 16 88 1002 6 O/NO 40.7
Ieri h: 19:50 nuvoloso_temporali Temporale con Pioggia 21 20 94 1000 5 E/NE 24
Ieri h: 19:20 nuvoloso_temporali Temporale con Pioggia Debole 21 19 88 999 9 NE 25.9
Ieri h: 18:50 molto_nuvoloso Molto Nuvoloso 23 19 78 1000 10 N/NE 22.2
Ieri h: 18:20 molto_nuvoloso Molto Nuvoloso 23 19 78 1001 10 NE 18.5
Ieri h: 17:50 coperto_pioggia Pioggia Debole Temporale nelle Vicinanze 23 19 78 1001 10 E/NE 20.3
Ieri h: 17:20 nuvoloso Nuvoloso 23 19 78 1000 10 N 22.2
Ieri h: 16:50 nuvoloso Nuvoloso 24 19 73 1001 10 N 16.7
Ieri h: 16:20 nuvoloso Nuvoloso 24 19 73 1002 10 O 13
Ieri h: 15:50 nuvoloso Nuvoloso 21 19 88 1001 10 O 13
Ieri h: 15:20 nuvoloso_temporali Temporale con Pioggia 23 20 83 1004 7 S/SO 55.5
Ieri h: 14:50 coperto_pioggia Pioggia Debole 27 21 69 1001 10 S/SE 27.8
Ieri h: 14:20 molto_nuvoloso Molto Nuvoloso 27 22 74 1001 10 SE 29.6
Ieri h: 13:20 poco_nuvoloso Poco Nuvoloso 28 21 65 1002 10 SE 22.2
Ieri h: 12:50 poco_nuvoloso Poco Nuvoloso 28 19 58 1003 10 SE 20.3
Ieri h: 12:20 poco_nuvoloso Poco Nuvoloso 28 21 65 1003 10 SE 14.8
Ieri h: 11:50 poco_nuvoloso Poco Nuvoloso 28 22 69 1003 10 SE 16.7
Ieri h: 11:20 poco_nuvoloso Poco Nuvoloso 27 22 74 1003 10 SE 13
Ieri h: 10:50 poco_nuvoloso Poco Nuvoloso 27 22 74 1004 10 E 9.3
Ieri h: 10:20 nuvoloso Nuvoloso 26 21 73 1004 10 E 11.1
Ieri h: 09:50 nuvoloso Nuvoloso 26 21 73 1004 10 E/NE 7.4
Ieri h: 09:20 poco_nuvoloso Poco Nuvoloso 26 20 69 1004 10 NE 9.3
Ieri h: 08:50 poco_nuvoloso Poco Nuvoloso 25 20 73 1004 10 NE 11.1
Ieri h: 08:20 nuvoloso Nuvoloso 24 19 73 1005 10 NE 11.1
Ieri h: 07:50 poco_nuvoloso Poco Nuvoloso 24 18 69 1004 10 NE 14.8
Ieri h: 07:20 poco_nuvoloso Poco Nuvoloso 23 18 73 1005 10 N/NE 11.1
Ieri h: 06:50 poco_nuvoloso Poco Nuvoloso 23 17 68 1004 10 N/NE 14.8
Ieri h: 06:20 poco_nuvoloso Poco Nuvoloso 22 17 73 1005 10 N/NE 9.3
Ieri h: 05:50 poco_nuvoloso Poco Nuvoloso 22 17 73 1005 10 N/NE 9.3
Ieri h: 05:20 sereno Sereno 22 17 73 1005 10 N/NE 13
Ieri h: 04:50 sereno Sereno 22 18 78 1005 10 N/NE 13
Ieri h: 04:20 sereno Sereno 22 18 78 1005 10 N 14.8
Ieri h: 03:50 sereno Sereno 22 18 78 1005 10 N 11.1
Ieri h: 03:20 sereno Sereno 23 18 73 1005 10 N 16.7
Ieri h: 02:50 nuvoloso Nuvoloso 24 20 78 1005 10 N/NE 11.1